Location: Igon
(43.1667°N, 0.2333°W)
Time: 09:11:01
(UTC+00:00)

ATLAS 2AS CENTAUR R/B - Pass Details

Date: 29 November 2020
Orbit: 943 x 1268 km, 63.7° (Epoch: 22 January)

Event Time Altitude Azimuth Distance (km) Brightness Sun altitude
Exits shadow 06:03:11 - 256° (WSW) 3,400 4.8 -12.1°
Reaches altitude 10° 06:03:41 10° 257° (WSW) 3,254 4.7 -12.1°
Maximum altitude 06:10:50 36° 322° (NW) 1,903 3.6 -10.8°
Drops below altitude 10° 06:17:54 10° 27° (NNE) 3,202 5.3 -9.6°
Sets 06:20:57 0° 36° (NE) 4,134 6.0 -9.1°
